Berlin, NH

4:39 AM EDT on April 23, 2018 (GMT -0400)
Berlin Municipal

Weather History for KBML - August, 2012

Change the Weather History Date:

Wednesday, August 22, 2012

  Actual Average Record
Temperature  
Mean Temperature 62 °F -  
Max Temperature 79 °F 74 °F 87 °F (2017)
Min Temperature 44 °F 46 °F 37 °F (2004)
Degree Days  
Heating Degree Days 4    
Growing Degree Days 12 (Base 50)    
Moisture  
Dew Point 48 °F    
Average Humidity 79    
Maximum Humidity 100    
Minimum Humidity 33    
Precipitation  
Precipitation 0.01 in - - ()
Sea Level Pressure  
Sea Level Pressure 30.14 in    
Wind  
Wind Speed 1 mph (SSW)    
Max Wind Speed 8 mph    
Max Gust Speed -    
Visibility 6 miles    
Events Fog    
Averages and records for this station are not official NWS values.
T = Trace of Precipitation, MM = Missing Value Source: NWS Daily Summary

Daily Weather History Graph

Daily Weather History Graph

Search for Another Location

Airport or City:

Astronomy

Aug. 22, 2012 Rise Set
Actual Time 5:56 AM EDT 7:38 PM EDT
Civil Twilight 5:25 AM EDT 8:08 PM EDT
Nautical Twilight 4:47 AM EDT 8:46 PM EDT
Astronomical Twilight 4:06 AM EDT 9:26 PM EDT
Moon 11:48 AM EDT (8/22) 9:59 PM EDT (8/22)
Length of Visible Light 14h 43m
Length of Day
13h 41m
Waxing Crescent, 29% of the Moon is Illuminated
Aug 22
Waxing Crescent
Aug 24
First Quarter
Aug 31
Full
Sep 8
Last Quarter
Sep 15
New

Hourly Weather History & Observations

Time (EDT) Temp. Dew Point Humidity Pressure Visibility Wind Dir Wind Speed Gust Speed Precip Events Conditions
12:52 AM 46.0 °F 44.1 °F 93% 30.14 in 10.0 mi Calm Calm - N/A   Scattered Clouds
1:00 AM 46.4 °F 44.6 °F 93% 30.13 in 2.5 mi Calm Calm - N/A   Mostly Cloudy
1:16 AM 46.4 °F 44.6 °F 93% 30.13 in 4.0 mi Calm Calm - N/A   Mostly Cloudy
1:18 AM 44.6 °F 44.6 °F 100% 30.13 in 1.0 mi Calm Calm - N/A   Mist
1:21 AM 44.6 °F 44.6 °F 100% 30.13 in 0.2 mi Calm Calm - N/A Fog Fog
1:52 AM 46.0 °F 45.0 °F 96% 30.13 in 0.2 mi Calm Calm - N/A Fog Fog
2:52 AM 46.9 °F 46.0 °F 97% 30.14 in 0.2 mi Calm Calm - N/A Fog Fog
3:52 AM 46.0 °F 45.0 °F 96% 30.15 in 0.2 mi Calm Calm - N/A Fog Fog
4:52 AM 45.0 °F 44.1 °F 97% 30.16 in 0.2 mi Calm Calm - N/A Fog Fog
6:52 AM 45.0 °F 45.0 °F 100% 30.17 in 0.2 mi Calm Calm - 0.01 in Fog Fog
7:40 AM 48.2 °F 46.4 °F 93% 30.17 in 0.2 mi Calm Calm - N/A Fog Fog
7:52 AM 48.0 °F 48.0 °F 100% 30.18 in 0.2 mi Calm Calm - N/A Fog Fog
8:47 AM 53.6 °F 51.8 °F 94% 30.17 in 0.5 mi Calm Calm - N/A Fog Fog
8:52 AM 54.0 °F 52.0 °F 93% 30.18 in 1.0 mi Calm Calm - N/A   Mist
8:57 AM 55.4 °F 51.8 °F 88% 30.17 in 1.5 mi Calm Calm - N/A   Clear
9:01 AM 57.2 °F 51.8 °F 82% 30.17 in 3.0 mi Calm Calm - N/A   Haze
9:52 AM 64.9 °F 52.0 °F 63% 30.17 in 10.0 mi Calm Calm - N/A   Clear
10:52 AM 72.0 °F 52.0 °F 49% 30.16 in 10.0 mi SE 3.5 mph - N/A   Clear
11:52 AM 75.0 °F 48.9 °F 40% 30.15 in 10.0 mi Variable 4.6 mph - N/A   Mostly Cloudy
12:52 PM 75.9 °F 46.0 °F 35% 30.14 in 10.0 mi SW 3.5 mph - N/A   Partly Cloudy
1:52 PM 77.0 °F 48.0 °F 36% 30.13 in 10.0 mi Variable 4.6 mph - N/A   Scattered Clouds
2:52 PM 79.0 °F 48.0 °F 34% 30.12 in 10.0 mi Variable 3.5 mph - N/A   Mostly Cloudy
3:52 PM 77.0 °F 46.0 °F 33% 30.11 in 10.0 mi Variable 3.5 mph - N/A   Partly Cloudy
4:52 PM 77.0 °F 48.0 °F 36% 30.10 in 10.0 mi SW 8.1 mph - N/A   Clear
6:52 PM 70.0 °F 59.0 °F 68% 30.11 in 10.0 mi Calm Calm - N/A   Partly Cloudy
7:52 PM 60.1 °F 55.9 °F 86% 30.12 in 10.0 mi Calm Calm - N/A   Clear
8:52 PM 55.0 °F 53.1 °F 93% 30.13 in 10.0 mi Calm Calm - N/A   Clear
9:52 PM 53.1 °F 51.1 °F 93% 30.14 in 10.0 mi Calm Calm - N/A   Clear
10:52 PM 51.1 °F 48.9 °F 92% 30.13 in 10.0 mi Calm Calm - N/A   Clear
11:52 PM 51.1 °F 48.0 °F 89% 30.13 in 10.0 mi Calm Calm - N/A   Clear